Wind_Speed
19 19 17 19 21 16 16 19 21 21 20 21 10 9 10 9 14 14 8 12 28 30 25 24 25 25 23 23 22 21 20 21 23 24 23 18 18 18 19 16 17 18 17 18 20 20 20 20 21
16 18 17 27 13 7 15 16 17 19 19 24 21 16 15 20 26 18 26 30 32 30 23 21 18 23 23 23 21 20 21 18 21 21 21 17 16 19 17 18 18 19 17 18 20 18 18 18 20
15 17 19 14 13 12 11 14 14 16 19 20 23 29 20 18 24 25 32 27 22 22 23 21 20 20 22 22 21 18 20 18 18 19 17 14 15 18 15 16 17 15 18 19 18 18 18 19 19
18 16 22 12 15 14 11 13 15 17 16 18 18 23 24 26 25 27 26 21 21 22 20 19 17 17 19 20 21 18 18 17 15 17 15 14 17 17 14 14 17 14 15 20 21 18 18 16 18
22 29 14 12 11 12 10 9 13 15 15 14 15 17 19 22 23 24 19 16 18 16 17 16 16 17 18 18 20 17 15 14 14 15 14 15 16 16 14 14 16 18 16 20 22 20 18 17 15
34 20 10 10 9 10 9 9 10 13 14 13 11 14 17 13 12 15 18 14 16 16 15 16 14 15 17 16 17 15 13 12 13 13 13 14 14 15 15 18 18 17 17 19 20 22 20 18 17
23 13 14 12 9 8 8 9 9 9 10 11 8 9 12 14 12 11 14 13 13 12 12 14 14 14 14 15 14 14 12 10 12 12 11 11 12 14 12 11 15 15 16 16 16 19 19 18 18
23 13 13 11 13 8 6 8 8 9 9 9 7 5 9 13 11 11 12 12 14 12 10 11 12 11 12 12 14 12 11 9 10 10 9 10 8 10 10 7 14 13 12 13 12 15 15 17 18
19 9 13 12 14 13 10 7 7 9 8 8 7 7 5 7 11 9 9 11 10 12 11 8 9 9 9 8 10 8 7 6 6 6 7 8 9 7 9 8 13 12 11 13 10 12 14 15 17
8 6 14 14 16 14 13 10 8 7 7 6 7 7 7 4 7 8 7 7 8 8 8 8 8 9 9 7 7 6 5 4 3 4 5 6 7 6 7 6 9 7 9 11 10 10 12 13 15
4 9 15 19 17 17 15 14 11 10 7 3 6 6 6 5 5 6 5 5 7 8 8 6 5 6 6 4 3 2 4 3 1 2 4 5 6 4 4 6 6 5 5 7 7 8 8 10 11
6 7 11 16 16 18 17 12 16 14 8 5 2 5 6 5 6 7 7 6 6 7 7 5 4 3 4 3 2 2 2 1 1 1 3 4 4 2 4 4 3 2 2 2 4 4 6 6 7
6 4 7 12 14 18 16 16 13 14 14 9 5 5 4 3 3 4 6 6 5 5 4 5 6 6 3 0 3 3 3 2 1 1 1 2 1 1 5 4 4 4 3 4 3 3 2 2 2
6 8 6 9 12 13 16 18 13 13 13 13 12 6 4 5 4 4 3 3 3 3 4 3 3 4 3 4 4 3 4 3 3 2 2 1 1 1 5 6 6 7 5 4 2 2 1 0 0
6 4 7 6 9 11 13 14 16 14 13 12 13 11 7 5 4 3 3 4 4 4 5 4 5 5 6 7 9 7 4 3 5 4 3 2 1 3 3 4 4 6 7 6 4 2 1 1 1
10 10 8 7 7 9 11 13 13 15 13 10 11 10 9 8 5 2 1 1 2 3 5 7 9 9 10 10 10 8 5 3 3 5 4 4 2 1 3 1 4 6 7 7 6 2 2 3 2
10 7 3 12 8 6 8 8 10 11 12 11 9 9 9 8 5 3 1 1 2 4 7 6 6 8 8 8 9 7 5 4 4 5 5 4 4 4 3 1 3 8 9 10 9 4 1 3 4
8 3 3 5 9 4 5 8 8 8 11 12 10 9 8 8 8 6 3 3 4 4 5 8 6 6 7 7 8 9 8 7 5 5 6 5 3 2 4 1 7 8 10 11 11 9 2 2 3
13 6 3 6 9 5 5 6 7 6 7 11 14 12 9 7 6 7 6 4 4 6 5 5 6 7 8 10 9 9 9 9 5 4 8 7 4 3 3 6 8 11 12 13 9 8 4 4 4
10 3 7 14 9 6 6 5 14 7 8 9 10 11 11 9 6 6 6 6 5 4 5 4 3 4 5 6 8 8 9 10 7 7 8 7 5 3 4 7 10 13 16 13 8 4 5 4 5
12 8 8 13 6 8 9 7 12 13 11 11 14 13 12 12 7 5 7 8 7 5 2 2 2 2 1 2 4 5 6 7 8 7 8 7 5 3 4 6 10 14 17 13 8 2 6 5 5
13 11 16 16 8 1 12 17 25 8 13 15 14 13 11 15 11 5 4 5 6 6 4 3 2 2 2 3 4 6 6 6 7 7 8 8 5 3 4 6 10 16 17 13 7 6 6 4 5
17 20 16 12 9 10 12 8 19 18 13 19 14 13 10 13 10 8 3 3 4 4 4 3 3 3 2 2 4 6 7 7 8 8 8 7 4 4 4 6 10 16 17 12 1 11 6 2 2
19 19 18 13 10 11 10 14 23 17 5 15 12 15 11 7 7 5 4 5 6 6 5 5 3 2 2 2 3 5 8 9 9 8 8 8 6 5 3 4 8 13 14 9 7 7 4 3 1
23 20 14 14 12 9 7 17 20 28 6 8 13 14 9 9 4 2 2 5 8 7 7 6 6 7 7 5 3 3 5 9 11 10 8 7 8 7 4 3 8 13 12 7 4 3 2 1 2
22 20 16 11 8 10 20 13 7 9 11 23 17 16 10 4 3 4 4 3 7 9 8 8 9 11 10 8 9 6 5 5 8 10 10 9 9 10 5 2 5 9 10 5 3 2 2 3 5
19 24 19 17 16 15 9 8 8 17 15 22 19 18 12 6 2 2 3 3 9 8 9 10 9 11 10 10 10 11 12 11 8 8 9 11 11 11 7 5 4 6 7 6 4 3 5 6 7
27 16 19 19 18 17 15 17 14 16 12 13 19 17 14 7 6 8 6 7 10 8 14 14 13 11 12 13 14 13 17 16 14 11 10 11 12 12 10 7 6 6 5 6 5 4 5 8 9
27 26 20 16 14 15 14 14 14 10 14 15 18 15 13 10 10 11 11 13 16 16 19 10 16 12 13 14 15 19 31 23 16 13 12 9 11 11 9 9 9 10 9 9 8 8 9 8 9
18 22 18 20 18 15 16 19 11 14 23 18 20 15 12 12 12 16 19 18 18 20 22 17 16 18 14 17 22 32 7 20 14 12 13 10 10 11 10 10 9 10 12 13 14 13 13 14 14
Wind_Direction
70 66 71 72 67 92 88 84 79 74 69 74 106 126 108 109 119 130 123 146 147 113 117 120 122 124 121 122 115 106 102 100 97 89 88 87 81 73 68 67 64 57 47 52 55 45 30 30 30
74 75 71 67 57 79 99 99 94 82 75 73 76 86 104 108 111 130 130 122 113 115 119 122 129 127 123 118 110 110 107 102 97 92 85 83 83 74 63 68 68 59 56 49 43 42 33 40 37
70 77 80 101 97 103 101 102 98 92 83 85 81 84 91 104 111 124 116 112 119 125 125 125 125 122 122 120 118 116 110 102 95 91 86 78 73 72 64 65 71 62 61 48 39 39 44 46 48
73 90 73 84 81 86 92 91 98 90 87 89 97 97 101 100 105 110 98 113 116 111 115 120 127 123 125 124 122 119 109 104 99 89 81 82 75 67 57 68 65 72 63 51 46 48 44 52 56
63 64 69 70 72 83 93 98 102 102 97 96 100 106 111 112 110 112 110 112 113 109 107 113 120 125 128 127 124 119 109 102 97 85 80 82 79 69 48 62 70 70 64 55 55 56 53 66 63
62 61 58 82 78 84 86 89 99 106 104 97 98 103 111 112 112 114 116 118 122 121 118 126 127 132 130 125 130 123 108 104 93 86 81 84 79 67 57 67 62 62 60 61 55 54 52 69 62
70 77 62 73 88 82 84 90 86 95 108 106 104 108 110 115 113 113 112 118 118 120 133 131 132 130 129 130 129 125 122 109 98 89 88 84 83 72 65 60 52 54 55 52 52 59 56 59 71
81 39 86 70 64 85 95 89 91 89 90 96 101 100 113 110 111 123 123 127 124 123 131 137 134 133 132 134 127 129 127 112 101 88 89 96 82 79 57 62 68 43 41 45 52 59 47 45 55
71 65 64 77 64 66 78 89 92 89 89 94 98 105 99 114 113 113 118 121 131 135 149 151 143 142 133 137 130 141 131 124 107 87 96 91 77 59 57 44 27 46 46 49 58 55 57 49 50
64 54 59 71 73 73 70 75 87 91 80 85 101 113 112 122 119 112 122 125 124 136 148 160 157 149 149 157 153 149 144 159 126 102 96 91 79 53 64 63 48 38 48 60 53 48 57 54 50
65 50 62 65 68 66 72 70 76 77 78 96 100 101 100 118 131 119 108 125 136 141 144 153 171 149 155 155 155 153 187 176 187 131 106 90 68 54 41 65 63 24 39 49 59 49 44 51 49
10 47 49 59 63 70 65 63 69 71 65 58 109 115 111 128 132 127 131 133 131 132 138 152 150 165 140 112 43 18 325 278 250 137 105 85 84 44 25 19 25 11 353 8 39 54 54 48 42
54 68 43 44 50 64 67 66 61 64 62 65 68 81 101 113 133 134 136 137 131 129 137 152 170 187 185 253 9 351 302 266 238 249 136 116 184 45 337 342 325 304 320 335 329 46 61 53 31
94 56 35 33 32 43 53 56 60 64 66 68 68 71 91 105 118 138 154 157 155 167 179 182 217 232 259 281 298 315 294 256 216 224 184 195 235 312 317 323 321 317 346 336 320 3 326 180 260
52 21 29 26 16 21 30 43 55 61 60 63 72 70 68 79 91 117 150 180 200 223 227 233 244 258 273 284 294 294 273 254 210 200 205 184 8 354 334 333 330 346 2 346 338 2 347 24 60
57 35 344 355 13 14 15 34 48 56 60 59 68 77 75 72 66 47 35 306 284 257 246 246 244 251 261 274 285 285 279 262 208 190 175 178 116 254 264 324 328 341 350 340 330 331 50 40 67
4 107 285 327 347 15 23 26 32 42 51 59 60 66 70 70 76 83 2 344 328 296 275 263 257 264 267 273 276 268 249 221 173 158 161 196 189 207 236 236 357 339 338 321 313 312 65 79 70
131 280 296 245 336 332 356 30 27 33 41 54 56 58 65 62 53 40 15 343 357 356 325 289 287 279 286 279 267 254 230 199 163 163 163 194 190 227 231 288 343 341 340 323 302 295 312 105 141
235 198 246 264 314 319 337 315 13 48 53 46 50 47 45 52 52 40 25 1 355 360 354 325 301 292 280 275 259 239 227 211 187 198 183 195 227 258 272 311 329 340 330 323 313 259 242 194 202
213 206 249 293 279 277 299 339 316 5 347 346 16 19 23 32 35 41 28 17 351 360 358 338 324 303 287 252 243 241 229 215 203 196 207 223 218 267 302 320 330 334 326 334 332 281 223 200 219
222 211 264 245 259 327 295 285 250 309 338 353 359 349 358 3 13 24 25 24 5 357 351 358 327 295 311 248 231 228 219 214 205 205 211 206 223 260 301 322 329 334 334 338 333 226 197 197 218
215 261 250 256 237 1 280 283 238 241 319 325 341 341 344 356 350 347 356 21 13 1 1 21 9 318 264 220 216 218 211 208 216 209 198 201 225 277 311 333 340 344 341 334 327 171 169 199 228
216 235 243 255 249 287 298 281 293 277 284 299 325 345 338 344 340 349 317 319 342 346 344 359 32 15 334 267 230 230 224 217 214 207 190 211 241 271 297 338 348 356 352 353 79 147 153 176 206
223 236 242 250 265 270 268 258 280 209 230 310 316 332 335 336 326 4 347 309 293 301 303 303 296 284 281 279 274 266 243 228 222 215 215 232 247 250 260 338 8 12 15 42 113 124 136 150 223
222 220 237 249 254 266 268 242 272 288 124 276 301 320 316 337 290 229 352 352 324 317 293 283 285 275 269 265 271 281 288 245 236 236 232 234 238 235 244 347 21 32 37 55 79 91 64 19 297
223 220 221 240 242 266 236 252 246 299 285 287 284 299 288 325 1 264 261 342 356 358 339 307 291 289 293 285 272 272 273 278 263 251 238 226 231 233 230 302 13 31 41 48 25 328 301 296 288
220 225 221 225 237 258 267 249 239 269 272 271 270 288 269 259 263 10 304 308 346 332 331 330 311 307 313 317 307 290 274 271 255 240 236 227 222 224 234 262 325 355 11 26 39 303 278 278 283
214 218 229 227 231 239 250 260 266 248 272 269 265 274 267 267 299 306 295 247 310 301 317 339 340 330 316 310 305 299 283 250 250 243 237 240 231 225 239 264 292 311 336 335 336 338 307 292 289
225 228 224 221 244 244 249 264 252 248 244 241 257 263 259 253 281 306 311 313 310 307 302 331 352 330 316 326 322 306 293 230 224 238 241 237 234 241 253 282 298 310 312 312 310 305 291 291 293
226 234 216 229 229 235 234 235 270 262 245 228 250 248 244 245 278 288 302 307 304 305 315 324 332 324 321 329 335 341 255 185 210 224 239 225 233 248 257 269 275 288 296 300 297 296 294 285 282
Height
5903 5903 5904 5903 5902 5905 5903 5903 5902 5901 5900 5897 5897 5897 5896 5895 5894 5896 5897 5895 5897 5900 5905 5907 5907 5908 5911 5911 5914 5915 5917 5916 5915 5913 5914 5916 5914 5913 5910 5909 5906 5905 5905 5904 5903 5903 5902 5900 5899
5907 5906 5907 5905 5914 5909 5907 5906 5905 5905 5903 5901 5899 5898 5898 5898 5897 5899 5899 5898 5901 5904 5908 5911 5912 5913 5914 5916 5916 5918 5918 5921 5916 5915 5916 5920 5918 5915 5915 5912 5910 5909 5907 5906 5905 5905 5905 5904 5902
5911 5909 5909 5914 5914 5911 5910 5909 5908 5907 5907 5906 5906 5902 5902 5903 5902 5903 5902 5906 5908 5909 5911 5914 5916 5917 5916 5916 5917 5921 5920 5922 5920 5918 5919 5922 5920 5917 5919 5917 5914 5913 5911 5910 5908 5908 5908 5908 5906
5913 5913 5913 5917 5914 5914 5914 5913 5912 5911 5911 5911 5911 5910 5909 5907 5908 5908 5910 5913 5914 5912 5914 5916 5919 5920 5920 5920 5921 5924 5923 5922 5922 5920 5922 5922 5921 5921 5921 5920 5917 5916 5916 5914 5912 5911 5910 5910 5910
5916 5915 5919 5918 5918 5917 5917 5917 5915 5915 5915 5915 5915 5914 5914 5914 5914 5913 5915 5917 5916 5917 5917 5919 5922 5923 5924 5923 5923 5925 5925 5925 5925 5924 5925 5924 5923 5923 5923 5922 5920 5919 5917 5917 5916 5915 5914 5913 5913
5916 5925 5928 5921 5920 5920 5920 5920 5919 5918 5917 5917 5917 5917 5916 5916 5916 5917 5916 5920 5919 5920 5921 5923 5923 5925 5926 5926 5926 5926 5927 5928 5928 5928 5928 5927 5926 5925 5927 5926 5924 5922 5921 5919 5919 5917 5916 5917 5915
5929 5934 5930 5925 5922 5922 5922 5921 5921 5921 5921 5920 5921 5921 5921 5919 5919 5919 5919 5921 5922 5923 5924 5924 5925 5928 5928 5929 5929 5928 5930 5931 5930 5930 5931 5930 5929 5928 5930 5929 5927 5926 5924 5923 5922 5922 5921 5920 5919
5931 5937 5933 5930 5926 5925 5925 5924 5923 5923 5923 5923 5923 5923 5923 5922 5923 5923 5923 5925 5925 5925 5926 5927 5927 5929 5929 5931 5930 5931 5932 5932 5932 5932 5933 5931 5932 5931 5931 5930 5929 5929 5928 5926 5925 5924 5924 5923 5921
5933 5939 5932 5931 5929 5928 5927 5926 5926 5925 5925 5925 5925 5925 5925 5925 5925 5926 5927 5926 5926 5926 5928 5931 5930 5931 5931 5934 5933 5934 5934 5934 5933 5933 5934 5933 5933 5934 5934 5933 5926 5931 5931 5929 5928 5927 5926 5925 5924
5939 5938 5935 5933 5932 5931 5930 5929 5928 5927 5927 5927 5927 5927 5927 5927 5927 5927 5928 5929 5929 5930 5931 5933 5933 5934 5934 5935 5935 5935 5935 5936 5935 5934 5935 5935 5935 5936 5936 5936 5935 5934 5933 5932 5931 5929 5928 5928 5927
5940 5939 5937 5935 5934 5933 5932 5931 5930 5930 5930 5930 5929 5929 5929 5930 5929 5929 5929 5931 5932 5934 5934 5935 5936 5936 5937 5938 5936 5936 5937 5936 5937 5937 5937 5936 5938 5938 5936 5936 5936 5934 5934 5934 5933 5932 5930 5929 5930
5940 5940 5939 5938 5937 5935 5934 5933 5932 5932 5932 5931 5931 5930 5931 5931 5931 5931 5932 5933 5933 5933 5934 5936 5937 5938 5938 5938 5938 5938 5939 5938 5939 5939 5938 5937 5938 5939 5938 5938 5938 5936 5935 5935 5934 5934 5931 5931 5930
5942 5942 5942 5940 5940 5938 5937 5936 5935 5934 5933 5933 5933 5932 5932 5933 5933 5933 5933 5933 5933 5934 5935 5936 5937 5939 5939 5939 5939 5939 5940 5939 5939 5940 5939 5938 5939 5939 5938 5939 5937 5936 5935 5935 5935 5934 5933 5932 5931
5945 5945 5945 5944 5942 5941 5940 5938 5937 5936 5935 5934 5934 5934 5934 5933 5933 5934 5934 5935 5935 5935 5936 5937 5938 5939 5938 5939 5940 5940 5941 5940 5939 5939 5939 5939 5940 5939 5939 5939 5937 5936 5934 5935 5936 5934 5934 5934 5932
5947 5947 5946 5946 5945 5944 5942 5942 5940 5938 5937 5936 5936 5936 5936 5935 5935 5935 5935 5936 5936 5936 5937 5938 5938 5938 5939 5939 5940 5940 5940 5939 5939 5940 5939 5940 5941 5940 5940 5938 5938 5937 5936 5935 5935 5935 5935 5933 5934
5949 5950 5949 5948 5948 5946 5945 5944 5943 5941 5939 5939 5938 5937 5937 5937 5937 5937 5936 5936 5936 5937 5937 5938 5937 5938 5938 5939 5939 5939 5939 5939 5940 5941 5941 5941 5941 5941 5940 5940 5940 5939 5938 5937 5936 5935 5934 5934 5934
5950 5953 5954 5949 5948 5948 5947 5946 5944 5944 5942 5941 5940 5939 5939 5939 5939 5938 5938 5937 5937 5937 5936 5936 5937 5937 5937 5937 5937 5937 5938 5939 5941 5941 5941 5941 5942 5942 5941 5940 5940 5939 5938 5937 5936 5935 5933 5934 5934
5951 5954 5953 5952 5949 5949 5948 5948 5946 5945 5944 5943 5941 5941 5940 5940 5939 5938 5938 5938 5937 5937 5936 5935 5936 5937 5937 5936 5936 5937 5938 5939 5941 5941 5941 5942 5942 5942 5941 5940 5939 5939 5937 5937 5935 5933 5932 5933 5934
5950 5955 5955 5951 5951 5950 5950 5949 5947 5946 5945 5945 5944 5943 5942 5941 5940 5939 5939 5938 5937 5936 5935 5935 5935 5936 5936 5937 5936 5937 5938 5939 5940 5941 5941 5942 5943 5943 5941 5940 5938 5937 5937 5935 5932 5931 5932 5932 5934
5951 5957 5957 5953 5951 5952 5952 5952 5945 5946 5946 5945 5945 5944 5943 5942 5941 5940 5939 5939 5938 5937 5936 5935 5936 5936 5935 5936 5936 5936 5937 5939 5940 5940 5941 5941 5942 5942 5941 5939 5938 5936 5935 5931 5929 5928 5930 5931 5933
5952 5957 5957 5954 5951 5951 5952 5952 5949 5945 5945 5945 5945 5944 5943 5943 5942 5941 5940 5939 5939 5937 5936 5936 5936 5936 5936 5937 5936 5936 5937 5939 5939 5939 5940 5941 5942 5941 5940 5940 5937 5935 5932 5928 5927 5927 5929 5931 5932
5952 5955 5954 5950 5950 5956 5951 5947 5934 5941 5942 5943 5943 5943 5942 5943 5942 5941 5941 5940 5939 5938 5937 5937 5937 5937 5937 5937 5937 5937 5938 5938 5938 5940 5940 5941 5941 5940 5940 5938 5936 5933 5929 5927 5925 5925 5929 5931 5931
5948 5950 5949 5949 5948 5951 5953 5951 5937 5945 5942 5942 5941 5943 5942 5942 5941 5940 5940 5940 5939 5939 5938 5938 5938 5938 5938 5938 5937 5938 5938 5938 5938 5939 5940 5941 5940 5940 5940 5939 5936 5932 5928 5925 5925 5926 5929 5931 5931
5942 5945 5944 5945 5948 5950 5951 5952 5938 5926 5943 5942 5941 5941 5942 5942 5941 5940 5939 5938 5938 5938 5938 5938 5938 5939 5939 5938 5938 5938 5937 5937 5937 5939 5940 5940 5940 5941 5941 5940 5938 5933 5929 5927 5928 5929 5930 5931 5931
5936 5940 5944 5947 5949 5950 5950 5948 5943 5937 5939 5944 5942 5942 5942 5941 5941 5941 5941 5940 5939 5939 5938 5938 5938 5939 5939 5939 5939 5938 5938 5938 5937 5937 5938 5940 5941 5942 5942 5941 5938 5934 5931 5930 5931 5931 5931 5932 5932
5933 5937 5942 5946 5948 5949 5945 5944 5951 5939 5940 5942 5941 5942 5943 5943 5941 5941 5941 5941 5942 5941 5940 5939 5939 5940 5940 5940 5940 5939 5938 5938 5938 5938 5938 5939 5940 5942 5942 5940 5939 5936 5933 5932 5932 5931 5931 5931 5932
5931 5931 5938 5943 5946 5947 5946 5940 5946 5944 5941 5940 5939 5941 5942 5943 5943 5942 5941 5941 5942 5941 5939 5939 5939 5939 5939 5939 5939 5939 5939 5938 5937 5936 5938 5938 5938 5940 5941 5940 5938 5937 5934 5933 5931 5932 5931 5931 5931
5923 5932 5934 5937 5941 5942 5945 5944 5945 5941 5941 5940 5937 5940 5940 5941 5942 5942 5941 5942 5941 5938 5939 5938 5938 5937 5937 5936 5935 5935 5936 5935 5936 5937 5936 5937 5938 5938 5939 5938 5937 5936 5935 5934 5933 5933 5932 5932 5931
5920 5923 5928 5936 5939 5940 5942 5943 5940 5937 5939 5940 5935 5938 5938 5939 5940 5940 5940 5940 5939 5937 5936 5934 5935 5935 5934 5933 5931 5928 5924 5928 5932 5934 5935 5935 5937 5938 5938 5937 5936 5936 5934 5933 5933 5932 5932 5931 5930
5918 5920 5927 5930 5934 5936 5937 5938 5938 5933 5930 5933 5933 5935 5937 5938 5938 5939 5938 5938 5937 5936 5934 5935 5933 5933 5932 5930 5927 5918 5905 5920 5930 5932 5934 5933 5934 5935 5935 5935 5934 5934 5933 5932 5931 5930 5929 5929 5928